owner,sensor,date,latitude,longitude,vertical_datum,mass_concentration_of_oxygen_in_sea_water,qcFlag 
DISL,ioos:station:DISL:CATA:1,2016-03-01T00:00:00Z,30.3085,-88.1395,2.263,11.57,1111122 
DISL,ioos:station:DISL:CATA:1,2016-03-01T00:30:00Z,30.3085,-88.1395,2.25,12.14,1111122 
DISL,ioos:station:DISL:CATA:1,2016-03-01T01:00:00Z,30.3085,-88.1395,2.222,12.09,1111122 
DISL,ioos:station:DISL:CATA:1,2016-03-01T01:30:00Z,30.3085,-88.1395,2.193,12.04,1111122 
DISL,ioos:station:DISL:CATA:1,2016-03-01T02:00:00Z,30.3085,-88.1395,2.169,12.04,1111122 
DISL,ioos:station:DISL:CATA:1,2016-03-01T02:30:00Z,30.3085,-88.1395,2.145,11.98,1111122 
DISL,ioos:station:DISL:CATA:1,2016-03-01T03:00:00Z,30.3085,-88.1395,2.118,11.89,1111122 
DISL,ioos:station:DISL:CATA:1,2016-03-01T03:30:00Z,30.3085,-88.1395,2.108,11.79,1111122 
DISL,ioos:station:DISL:CATA:1,2016-03-01T04:00:00Z,30.3085,-88.1395,2.085,11.71,1111122 
DISL,ioos:station:DISL:CATA:1,2016-03-01T04:30:00Z,30.3085,-88.1395,2.074,11.63,1111122 
DISL,ioos:station:DISL:CATA:1,2016-03-01T05:00:00Z,30.3085,-88.1395,2.063,11.55,1111122 
DISL,ioos:station:DISL:CATA:1,2016-03-01T05:30:00Z,30.3085,-88.1395,2.066,11.49,1111122 
DISL,ioos:station:DISL:CATA:1,2016-03-01T06:00:00Z,30.3085,-88.1395,2.06,11.5,1111122 
DISL,ioos:station:DISL:CATA:1,2016-03-01T06:30:00Z,30.3085,-88.1395,2.057,11.49,1111122 
DISL,ioos:station:DISL:CATA:1,2016-03-01T07:00:00Z,30.3085,-88.1395,2.052,11.45,1111122 
DISL,ioos:station:DISL:CATA:1,2016-03-01T07:30:00Z,30.3085,-88.1395,2.057,11.43,1111122 
DISL,ioos:station:DISL:CATA:1,2016-03-01T08:00:00Z,30.3085,-88.1395,2.062,11.46,1111122 
DISL,ioos:station:DISL:CATA:1,2016-03-01T08:30:00Z,30.3085,-88.1395,2.067,11.37,1111122 
DISL,ioos:station:DISL:CATA:1,2016-03-01T09:00:00Z,30.3085,-88.1395,2.069,11.31,1111122 
DISL,ioos:station:DISL:CATA:1,2016-03-01T09:30:00Z,30.3085,-88.1395,2.071,11.2,1111122 
DISL,ioos:station:DISL:CATA:1,2016-03-01T10:00:00Z,30.3085,-88.1395,2.081,11.11,1111122 
DISL,ioos:station:DISL:CATA:1,2016-03-01T10:30:00Z,30.3085,-88.1395,2.078,11.01,1111122 
DISL,ioos:station:DISL:CATA:1,2016-03-01T11:00:00Z,30.3085,-88.1395,2.106,10.84,1111122 
DISL,ioos:station:DISL:CATA:1,2016-03-01T11:30:00Z,30.3085,-88.1395,2.121,10.66,1111122 
DISL,ioos:station:DISL:CATA:1,2016-03-01T12:00:00Z,30.3085,-88.1395,2.14,10.62,1111122 
DISL,ioos:station:DISL:CATA:1,2016-03-01T12:30:00Z,30.3085,-88.1395,2.161,10.55,1111122 
DISL,ioos:station:DISL:CATA:1,2016-03-01T13:00:00Z,30.3085,-88.1395,2.187,10.51,1111122 
DISL,ioos:station:DISL:CATA:1,2016-03-01T13:30:00Z,30.3085,-88.1395,2.203,10.34,1111122 
DISL,ioos:station:DISL:CATA:1,2016-03-01T14:00:00Z,30.3085,-88.1395,2.214,10.51,1111122 
DISL,ioos:station:DISL:CATA:1,2016-03-01T14:30:00Z,30.3085,-88.1395,2.234,10.72,1111122 
DISL,ioos:station:DISL:CATA:1,2016-03-01T15:00:00Z,30.3085,-88.1395,2.258,10.95,1111122 
DISL,ioos:station:DISL:CATA:1,2016-03-01T15:30:00Z,30.3085,-88.1395,2.267,11.13,1111122 
DISL,ioos:station:DISL:CATA:1,2016-03-01T16:00:00Z,30.3085,-88.1395,2.295,11.04,1111122 
DISL,ioos:station:DISL:CATA:1,2016-03-01T16:30:00Z,30.3085,-88.1395,2.319,11.16,1111122 
DISL,ioos:station:DISL:CATA:1,2016-03-01T17:00:00Z,30.3085,-88.1395,2.339,11.33,1111122 
DISL,ioos:station:DISL:CATA:1,2016-03-01T17:30:00Z,30.3085,-88.1395,2.361,11.55,1111122 
DISL,ioos:station:DISL:CATA:1,2016-03-01T18:00:00Z,30.3085,-88.1395,2.385,11.7,1111122 
DISL,ioos:station:DISL:CATA:1,2016-03-01T18:30:00Z,30.3085,-88.1395,2.394,11.92,1111122 
DISL,ioos:station:DISL:CATA:1,2016-03-01T19:00:00Z,30.3085,-88.1395,2.418,12.13,1111122 
DISL,ioos:station:DISL:CATA:1,2016-03-01T19:30:00Z,30.3085,-88.1395,2.422,11.59,1111122 
DISL,ioos:station:DISL:CATA:1,2016-03-01T20:00:00Z,30.3085,-88.1395,2.437,11.79,1111122 
DISL,ioos:station:DISL:CATA:1,2016-03-01T20:30:00Z,30.3085,-88.1395,2.433,11.0,1111122 
DISL,ioos:station:DISL:CATA:1,2016-03-01T21:00:00Z,30.3085,-88.1395,2.431,7.41,1111122 
DISL,ioos:station:DISL:CATA:1,2016-03-01T21:30:00Z,30.3085,-88.1395,2.434,6.97,1111122 
DISL,ioos:station:DISL:CATA:1,2016-03-01T22:00:00Z,30.3085,-88.1395,2.43,6.78,1111122 
DISL,ioos:station:DISL:CATA:1,2016-03-01T22:30:00Z,30.3085,-88.1395,2.431,6.87,1111122 
DISL,ioos:station:DISL:CATA:1,2016-03-01T23:00:00Z,30.3085,-88.1395,2.419,6.74,1111122 
DISL,ioos:station:DISL:CATA:1,2016-03-01T23:30:00Z,30.3085,-88.1395,2.422,6.62,1111122 
DISL,ioos:station:DISL:CATA:1,2016-03-02T00:00:00Z,30.3085,-88.1395,2.395,6.42,1111122 
DISL,ioos:station:DISL:CATA:1,2016-03-02T00:30:00Z,30.3085,-88.1395,2.402,6.27,1111122 
DISL,ioos:station:DISL:CATA:1,2016-03-02T01:00:00Z,30.3085,-88.1395,2.397,6.09,1111122 
DISL,ioos:station:DISL:CATA:1,2016-03-02T01:30:00Z,30.3085,-88.1395,2.378,6.16,1111122 
DISL,ioos:station:DISL:CATA:1,2016-03-02T02:00:00Z,30.3085,-88.1395,2.347,6.21,1111122 
DISL,ioos:station:DISL:CATA:1,2016-03-02T02:30:00Z,30.3085,-88.1395,2.333,5.85,1111122 
DISL,ioos:station:DISL:CATA:1,2016-03-02T03:00:00Z,30.3085,-88.1395,2.324,5.62,1111122 
DISL,ioos:station:DISL:CATA:1,2016-03-02T03:30:00Z,30.3085,-88.1395,2.289,5.65,1111122 
DISL,ioos:station:DISL:CATA:1,2016-03-02T04:00:00Z,30.3085,-88.1395,2.268,6.01,1111122 
DISL,ioos:station:DISL:CATA:1,2016-03-02T04:30:00Z,30.3085,-88.1395,2.261,8.33,1111122 
DISL,ioos:station:DISL:CATA:1,2016-03-02T05:00:00Z,30.3085,-88.1395,2.27,9.58,1111122 
DISL,ioos:station:DISL:CATA:1,2016-03-02T05:30:00Z,30.3085,-88.1395,2.244,9.99,1111122 
DISL,ioos:station:DISL:CATA:1,2016-03-02T06:00:00Z,30.3085,-88.1395,2.193,10.45,1111122 
DISL,ioos:station:DISL:CATA:1,2016-03-02T06:30:00Z,30.3085,-88.1395,2.173,10.45,1111122 
DISL,ioos:station:DISL:CATA:1,2016-03-02T07:00:00Z,30.3085,-88.1395,2.153,10.6,1111122 
DISL,ioos:station:DISL:CATA:1,2016-03-02T07:30:00Z,30.3085,-88.1395,2.125,9.21,1111122 
DISL,ioos:station:DISL:CATA:1,2016-03-02T08:00:00Z,30.3085,-88.1395,2.137,8.47,1111122 
DISL,ioos:station:DISL:CATA:1,2016-03-02T08:30:00Z,30.3085,-88.1395,2.101,8.71,1111122 
DISL,ioos:station:DISL:CATA:1,2016-03-02T09:00:00Z,30.3085,-88.1395,2.015,8.74,1111122 
DISL,ioos:station:DISL:CATA:1,2016-03-02T09:30:00Z,30.3085,-88.1395,1.969,8.91,1111122 
DISL,ioos:station:DISL:CATA:1,2016-03-02T10:00:00Z,30.3085,-88.1395,1.961,8.95,1111122 
DISL,ioos:station:DISL:CATA:1,2016-03-02T10:30:00Z,30.3085,-88.1395,1.932,8.95,1111122 
DISL,ioos:station:DISL:CATA:1,2016-03-02T11:00:00Z,30.3085,-88.1395,1.919,8.5,1111122 
DISL,ioos:station:DISL:CATA:1,2016-03-02T11:30:00Z,30.3085,-88.1395,1.905,8.51,1111122 
DISL,ioos:station:DISL:CATA:1,2016-03-02T12:00:00Z,30.3085,-88.1395,1.874,8.6,1111122 
DISL,ioos:station:DISL:CATA:1,2016-03-02T12:30:00Z,30.3085,-88.1395,1.872,8.7,1111122 
DISL,ioos:station:DISL:CATA:1,2016-03-02T13:00:00Z,30.3085,-88.1395,1.885,8.77,1111122 
DISL,ioos:station:DISL:CATA:1,2016-03-02T13:30:00Z,30.3085,-88.1395,1.903,8.83,1111122 
DISL,ioos:station:DISL:CATA:1,2016-03-02T14:00:00Z,30.3085,-88.1395,1.939,8.8,1111122 
DISL,ioos:station:DISL:CATA:1,2016-03-02T14:30:00Z,30.3085,-88.1395,1.988,8.76,1111122 
DISL,ioos:station:DISL:CATA:1,2016-03-02T15:00:00Z,30.3085,-88.1395,2.028,8.78,1111122 
DISL,ioos:station:DISL:CATA:1,2016-03-02T15:30:00Z,30.3085,-88.1395,2.052,8.83,1111122 
DISL,ioos:station:DISL:CATA:1,2016-03-02T16:00:00Z,30.3085,-88.1395,2.072,8.79,1111122 
DISL,ioos:station:DISL:CATA:1,2016-03-02T16:30:00Z,30.3085,-88.1395,2.09,8.94,1111122 
DISL,ioos:station:DISL:CATA:1,2016-03-02T17:00:00Z,30.3085,-88.1395,2.12,9.04,1111122 
DISL,ioos:station:DISL:CATA:1,2016-03-02T17:30:00Z,30.3085,-88.1395,2.127,9.33,1111122 
DISL,ioos:station:DISL:CATA:1,2016-03-02T18:00:00Z,30.3085,-88.1395,2.154,9.61,1111122 
DISL,ioos:station:DISL:CATA:1,2016-03-02T18:30:00Z,30.3085,-88.1395,2.199,9.58,1111122 
DISL,ioos:station:DISL:CATA:1,2016-03-02T19:00:00Z,30.3085,-88.1395,2.24,9.59,1111122 
DISL,ioos:station:DISL:CATA:1,2016-03-02T19:30:00Z,30.3085,-88.1395,2.267,9.72,1111122 
DISL,ioos:station:DISL:CATA:1,2016-03-02T20:00:00Z,30.3085,-88.1395,2.303,9.99,1111122 
DISL,ioos:station:DISL:CATA:1,2016-03-02T20:30:00Z,30.3085,-88.1395,2.322,10.18,1111122 
DISL,ioos:station:DISL:CATA:1,2016-03-02T21:00:00Z,30.3085,-88.1395,2.335,10.1,1111122 
DISL,ioos:station:DISL:CATA:1,2016-03-02T21:30:00Z,30.3085,-88.1395,2.341,10.37,1111122 
DISL,ioos:station:DISL:CATA:1,2016-03-02T22:00:00Z,30.3085,-88.1395,2.347,10.6,1111122 
DISL,ioos:station:DISL:CATA:1,2016-03-02T22:30:00Z,30.3085,-88.1395,2.344,10.34,1111122 
DISL,ioos:station:DISL:CATA:1,2016-03-02T23:00:00Z,30.3085,-88.1395,2.355,10.37,1111122 
DISL,ioos:station:DISL:CATA:1,2016-03-02T23:30:00Z,30.3085,-88.1395,2.345,10.14,1111122 
DISL,ioos:station:DISL:CATA:1,2016-03-03T00:00:00Z,30.3085,-88.1395,2.339,10.08,1111122 
DISL,ioos:station:DISL:CATA:1,2016-03-03T00:30:00Z,30.3085,-88.1395,2.323,9.82,1111122 
DISL,ioos:station:DISL:CATA:1,2016-03-03T01:00:00Z,30.3085,-88.1395,2.316,9.79,1111122 
DISL,ioos:station:DISL:CATA:1,2016-03-03T01:30:00Z,30.3085,-88.1395,2.297,9.66,1111122 
DISL,ioos:station:DISL:CATA:1,2016-03-03T02:00:00Z,30.3085,-88.1395,2.267,9.49,1111122 
DISL,ioos:station:DISL:CATA:1,2016-03-03T02:30:00Z,30.3085,-88.1395,2.228,9.74,1111122 
DISL,ioos:station:DISL:CATA:1,2016-03-03T03:00:00Z,30.3085,-88.1395,2.206,10.43,1111122 
DISL,ioos:station:DISL:CATA:1,2016-03-03T03:30:00Z,30.3085,-88.1395,2.162,10.36,1111122 
DISL,ioos:station:DISL:CATA:1,2016-03-03T04:00:00Z,30.3085,-88.1395,2.131,10.26,1111122 
DISL,ioos:station:DISL:CATA:1,2016-03-03T04:30:00Z,30.3085,-88.1395,2.099,9.44,1111122 
DISL,ioos:station:DISL:CATA:1,2016-03-03T05:00:00Z,30.3085,-88.1395,2.083,9.4,1111122 
DISL,ioos:station:DISL:CATA:1,2016-03-03T05:30:00Z,30.3085,-88.1395,2.061,9.35,1111122 
DISL,ioos:station:DISL:CATA:1,2016-03-03T06:00:00Z,30.3085,-88.1395,2.038,9.3,1111122 
DISL,ioos:station:DISL:CATA:1,2016-03-03T06:30:00Z,30.3085,-88.1395,2.018,9.42,1111122 
DISL,ioos:station:DISL:CATA:1,2016-03-03T07:00:00Z,30.3085,-88.1395,2.002,9.44,1111122 
DISL,ioos:station:DISL:CATA:1,2016-03-03T07:30:00Z,30.3085,-88.1395,1.999,9.45,1111122 
DISL,ioos:station:DISL:CATA:1,2016-03-03T08:00:00Z,30.3085,-88.1395,1.993,9.47,1111122 
DISL,ioos:station:DISL:CATA:1,2016-03-03T08:30:00Z,30.3085,-88.1395,1.991,9.47,1111122 
DISL,ioos:station:DISL:CATA:1,2016-03-03T09:00:00Z,30.3085,-88.1395,1.991,9.48,1111122 
DISL,ioos:station:DISL:CATA:1,2016-03-03T09:30:00Z,30.3085,-88.1395,1.984,9.48,1111122 
DISL,ioos:station:DISL:CATA:1,2016-03-03T10:00:00Z,30.3085,-88.1395,1.984,9.44,1111122 
DISL,ioos:station:DISL:CATA:1,2016-03-03T10:30:00Z,30.3085,-88.1395,2.002,9.35,1111122 
DISL,ioos:station:DISL:CATA:1,2016-03-03T11:00:00Z,30.3085,-88.1395,2.03,9.31,1111122 
DISL,ioos:station:DISL:CATA:1,2016-03-03T11:30:00Z,30.3085,-88.1395,2.041,9.3,1111122 
DISL,ioos:station:DISL:CATA:1,2016-03-03T12:00:00Z,30.3085,-88.1395,2.062,9.27,1111122 
DISL,ioos:station:DISL:CATA:1,2016-03-03T12:30:00Z,30.3085,-88.1395,2.086,9.25,1111122 
DISL,ioos:station:DISL:CATA:1,2016-03-03T13:00:00Z,30.3085,-88.1395,2.117,9.18,1111122 
DISL,ioos:station:DISL:CATA:1,2016-03-03T13:30:00Z,30.3085,-88.1395,2.126,9.08,1111122 
DISL,ioos:station:DISL:CATA:1,2016-03-03T14:00:00Z,30.3085,-88.1395,2.142,9.14,1111122 
DISL,ioos:station:DISL:CATA:1,2016-03-03T14:30:00Z,30.3085,-88.1395,2.176,9.14,1111122 
DISL,ioos:station:DISL:CATA:1,2016-03-03T15:00:00Z,30.3085,-88.1395,2.199,9.1,1111122 
DISL,ioos:station:DISL:CATA:1,2016-03-03T15:30:00Z,30.3085,-88.1395,2.225,9.11,1111122 
DISL,ioos:station:DISL:CATA:1,2016-03-03T16:00:00Z,30.3085,-88.1395,2.254,9.3,1111122 
DISL,ioos:station:DISL:CATA:1,2016-03-03T16:30:00Z,30.3085,-88.1395,2.237,9.68,1111122 
DISL,ioos:station:DISL:CATA:1,2016-03-03T17:00:00Z,30.3085,-88.1395,2.24,9.59,1111122 
DISL,ioos:station:DISL:CATA:1,2016-03-03T17:30:00Z,30.3085,-88.1395,2.275,9.83,1111122 
DISL,ioos:station:DISL:CATA:1,2016-03-03T18:00:00Z,30.3085,-88.1395,2.273,10.17,1111122 
DISL,ioos:station:DISL:CATA:1,2016-03-03T18:30:00Z,30.3085,-88.1395,2.305,9.78,1111122 
DISL,ioos:station:DISL:CATA:1,2016-03-03T19:00:00Z,30.3085,-88.1395,2.299,9.79,1111122 
DISL,ioos:station:DISL:CATA:1,2016-03-03T19:30:00Z,30.3085,-88.1395,2.303,9.67,1111122 
DISL,ioos:station:DISL:CATA:1,2016-03-03T20:00:00Z,30.3085,-88.1395,2.322,9.62,1111122 
DISL,ioos:station:DISL:CATA:1,2016-03-03T20:30:00Z,30.3085,-88.1395,2.347,9.58,1111122 
DISL,ioos:station:DISL:CATA:1,2016-03-03T21:00:00Z,30.3085,-88.1395,2.404,9.57,1111122 
DISL,ioos:station:DISL:CATA:1,2016-03-03T21:30:00Z,30.3085,-88.1395,2.459,9.45,1111122 
DISL,ioos:station:DISL:CATA:1,2016-03-03T22:00:00Z,30.3085,-88.1395,2.469,9.53,1111122 
DISL,ioos:station:DISL:CATA:1,2016-03-03T22:30:00Z,30.3085,-88.1395,2.451,9.61,1111122 
DISL,ioos:station:DISL:CATA:1,2016-03-03T23:00:00Z,30.3085,-88.1395,2.486,9.65,1111122 
DISL,ioos:station:DISL:CATA:1,2016-03-03T23:30:00Z,30.3085,-88.1395,2.512,9.88,1111122 
DISL,ioos:station:DISL:CATA:1,2016-03-04T00:00:00Z,30.3085,-88.1395,2.498,10.03,1111122 
DISL,ioos:station:DISL:CATA:1,2016-03-04T00:30:00Z,30.3085,-88.1395,2.502,10.01,1111122 
DISL,ioos:station:DISL:CATA:1,2016-03-04T01:00:00Z,30.3085,-88.1395,2.412,10.22,1111122 
DISL,ioos:station:DISL:CATA:1,2016-03-04T01:30:00Z,30.3085,-88.1395,2.528,10.09,1111122 
DISL,ioos:station:DISL:CATA:1,2016-03-04T02:00:00Z,30.3085,-88.1395,2.572,9.98,1111122 
DISL,ioos:station:DISL:CATA:1,2016-03-04T02:30:00Z,30.3085,-88.1395,2.55,9.98,1111122 
DISL,ioos:station:DISL:CATA:1,2016-03-04T03:00:00Z,30.3085,-88.1395,2.478,9.86,1111122 
DISL,ioos:station:DISL:CATA:1,2016-03-04T03:30:00Z,30.3085,-88.1395,2.448,9.62,1111122 
DISL,ioos:station:DISL:CATA:1,2016-03-04T04:00:00Z,30.3085,-88.1395,2.386,9.38,1111122 
DISL,ioos:station:DISL:CATA:1,2016-03-04T04:30:00Z,30.3085,-88.1395,2.256,9.44,1111122 
DISL,ioos:station:DISL:CATA:1,2016-03-04T05:00:00Z,30.3085,-88.1395,2.191,9.44,1111122 
DISL,ioos:station:DISL:CATA:1,2016-03-04T05:30:00Z,30.3085,-88.1395,2.185,9.47,1111122 
DISL,ioos:station:DISL:CATA:1,2016-03-04T06:00:00Z,30.3085,-88.1395,2.107,9.42,1111122 
DISL,ioos:station:DISL:CATA:1,2016-03-04T06:30:00Z,30.3085,-88.1395,2.031,9.45,1111122 
DISL,ioos:station:DISL:CATA:1,2016-03-04T07:00:00Z,30.3085,-88.1395,2.014,9.58,1111122 
DISL,ioos:station:DISL:CATA:1,2016-03-04T07:30:00Z,30.3085,-88.1395,1.96,9.53,1111122 
DISL,ioos:station:DISL:CATA:1,2016-03-04T08:00:00Z,30.3085,-88.1395,1.93,9.46,1111122 
DISL,ioos:station:DISL:CATA:1,2016-03-04T08:30:00Z,30.3085,-88.1395,1.914,9.44,1111122 
DISL,ioos:station:DISL:CATA:1,2016-03-04T09:00:00Z,30.3085,-88.1395,1.894,9.46,1111122 
DISL,ioos:station:DISL:CATA:1,2016-03-04T09:30:00Z,30.3085,-88.1395,1.873,9.48,1111122 
DISL,ioos:station:DISL:CATA:1,2016-03-04T10:00:00Z,30.3085,-88.1395,1.882,9.52,1111122 
DISL,ioos:station:DISL:CATA:1,2016-03-04T10:30:00Z,30.3085,-88.1395,1.889,9.52,1111122 
DISL,ioos:station:DISL:CATA:1,2016-03-04T11:00:00Z,30.3085,-88.1395,1.9,9.48,1111122 
DISL,ioos:station:DISL:CATA:1,2016-03-04T11:30:00Z,30.3085,-88.1395,1.921,9.47,1111122 
DISL,ioos:station:DISL:CATA:1,2016-03-04T12:00:00Z,30.3085,-88.1395,1.927,9.45,1111122 
DISL,ioos:station:DISL:CATA:1,2016-03-04T12:30:00Z,30.3085,-88.1395,1.927,9.43,1111122 
DISL,ioos:station:DISL:CATA:1,2016-03-04T13:00:00Z,30.3085,-88.1395,1.938,9.42,1111122 
DISL,ioos:station:DISL:CATA:1,2016-03-04T13:30:00Z,30.3085,-88.1395,1.944,9.42,1111122 
DISL,ioos:station:DISL:CATA:1,2016-03-04T14:00:00Z,30.3085,-88.1395,1.936,9.42,1111122 
DISL,ioos:station:DISL:CATA:1,2016-03-04T14:30:00Z,30.3085,-88.1395,1.951,9.45,1111122 
DISL,ioos:station:DISL:CATA:1,2016-03-04T15:00:00Z,30.3085,-88.1395,1.968,9.49,1111122 
DISL,ioos:station:DISL:CATA:1,2016-03-04T15:30:00Z,30.3085,-88.1395,1.983,9.52,1111122 
DISL,ioos:station:DISL:CATA:1,2016-03-04T16:00:00Z,30.3085,-88.1395,1.983,9.48,1111122 
DISL,ioos:station:DISL:CATA:1,2016-03-04T16:30:00Z,30.3085,-88.1395,2.024,9.41,1111122 
DISL,ioos:station:DISL:CATA:1,2016-03-04T17:00:00Z,30.3085,-88.1395,2.062,9.44,1111122 
DISL,ioos:station:DISL:CATA:1,2016-03-04T17:30:00Z,30.3085,-88.1395,2.094,9.38,1111122 
DISL,ioos:station:DISL:CATA:1,2016-03-04T18:00:00Z,30.3085,-88.1395,2.127,9.6,1111122 
DISL,ioos:station:DISL:CATA:1,2016-03-04T18:30:00Z,30.3085,-88.1395,2.148,10.14,1111122 
DISL,ioos:station:DISL:CATA:1,2016-03-04T19:00:00Z,30.3085,-88.1395,2.179,10.43,1111122 
DISL,ioos:station:DISL:CATA:1,2016-03-04T19:30:00Z,30.3085,-88.1395,2.22,10.59,1111122 
DISL,ioos:station:DISL:CATA:1,2016-03-04T20:00:00Z,30.3085,-88.1395,2.243,10.67,1111122 
DISL,ioos:station:DISL:CATA:1,2016-03-04T20:30:00Z,30.3085,-88.1395,2.286,10.87,1111122 
DISL,ioos:station:DISL:CATA:1,2016-03-04T21:00:00Z,30.3085,-88.1395,2.314,11.03,1111122 
DISL,ioos:station:DISL:CATA:1,2016-03-04T21:30:00Z,30.3085,-88.1395,2.344,10.21,1111122 
DISL,ioos:station:DISL:CATA:1,2016-03-04T22:00:00Z,30.3085,-88.1395,2.319,10.52,1111122 
DISL,ioos:station:DISL:CATA:1,2016-03-04T22:30:00Z,30.3085,-88.1395,2.334,10.41,1111122 
DISL,ioos:station:DISL:CATA:1,2016-03-04T23:00:00Z,30.3085,-88.1395,2.351,10.47,1111122 
DISL,ioos:station:DISL:CATA:1,2016-03-04T23:30:00Z,30.3085,-88.1395,2.355,10.54,1111122 
DISL,ioos:station:DISL:CATA:1,2016-03-05T00:00:00Z,30.3085,-88.1395,2.363,10.49,1111122 
DISL,ioos:station:DISL:CATA:1,2016-03-05T00:30:00Z,30.3085,-88.1395,2.364,10.42,1111122 
DISL,ioos:station:DISL:CATA:1,2016-03-05T01:00:00Z,30.3085,-88.1395,2.361,10.2,1111122 
DISL,ioos:station:DISL:CATA:1,2016-03-05T01:30:00Z,30.3085,-88.1395,2.346,10.03,1111122 
DISL,ioos:station:DISL:CATA:1,2016-03-05T02:00:00Z,30.3085,-88.1395,2.331,9.79,1111122 
DISL,ioos:station:DISL:CATA:1,2016-03-05T02:30:00Z,30.3085,-88.1395,2.31,9.25,1111122 
DISL,ioos:station:DISL:CATA:1,2016-03-05T03:00:00Z,30.3085,-88.1395,2.285,9.58,1111122 
DISL,ioos:station:DISL:CATA:1,2016-03-05T03:30:00Z,30.3085,-88.1395,2.259,9.63,1111122 
DISL,ioos:station:DISL:CATA:1,2016-03-05T04:00:00Z,30.3085,-88.1395,2.238,9.4,1111122 
DISL,ioos:station:DISL:CATA:1,2016-03-05T04:30:00Z,30.3085,-88.1395,2.194,9.24,1111122 
DISL,ioos:station:DISL:CATA:1,2016-03-05T05:00:00Z,30.3085,-88.1395,2.16,9.17,1111122 
DISL,ioos:station:DISL:CATA:1,2016-03-05T05:30:00Z,30.3085,-88.1395,2.13,9.59,1111122 
DISL,ioos:station:DISL:CATA:1,2016-03-05T06:00:00Z,30.3085,-88.1395,2.094,9.67,1111122 
DISL,ioos:station:DISL:CATA:1,2016-03-05T06:30:00Z,30.3085,-88.1395,2.042,9.32,1111122 
DISL,ioos:station:DISL:CATA:1,2016-03-05T07:00:00Z,30.3085,-88.1395,1.999,9.24,1111122 
DISL,ioos:station:DISL:CATA:1,2016-03-05T07:30:00Z,30.3085,-88.1395,1.953,9.14,1111122 
DISL,ioos:station:DISL:CATA:1,2016-03-05T08:00:00Z,30.3085,-88.1395,1.925,9.07,1111122 
DISL,ioos:station:DISL:CATA:1,2016-03-05T08:30:00Z,30.3085,-88.1395,1.891,9.03,1111122 
DISL,ioos:station:DISL:CATA:1,2016-03-05T09:00:00Z,30.3085,-88.1395,1.869,9.03,1111122 
DISL,ioos:station:DISL:CATA:1,2016-03-05T09:30:00Z,30.3085,-88.1395,1.855,8.99,1111122 
DISL,ioos:station:DISL:CATA:1,2016-03-05T10:00:00Z,30.3085,-88.1395,1.849,9.01,1111122 
DISL,ioos:station:DISL:CATA:1,2016-03-05T10:30:00Z,30.3085,-88.1395,1.846,8.98,1111122 
DISL,ioos:station:DISL:CATA:1,2016-03-05T11:00:00Z,30.3085,-88.1395,1.855,8.97,1111122 
DISL,ioos:station:DISL:CATA:1,2016-03-05T11:30:00Z,30.3085,-88.1395,1.871,8.97,1111122 
DISL,ioos:station:DISL:CATA:1,2016-03-05T12:00:00Z,30.3085,-88.1395,1.888,8.95,1111122 
DISL,ioos:station:DISL:CATA:1,2016-03-05T12:30:00Z,30.3085,-88.1395,1.898,8.95,1111122 
DISL,ioos:station:DISL:CATA:1,2016-03-05T13:00:00Z,30.3085,-88.1395,1.911,8.96,1111122 
DISL,ioos:station:DISL:CATA:1,2016-03-05T13:30:00Z,30.3085,-88.1395,1.925,8.95,1111122 
DISL,ioos:station:DISL:CATA:1,2016-03-05T14:00:00Z,30.3085,-88.1395,1.933,8.96,1111122 
DISL,ioos:station:DISL:CATA:1,2016-03-05T14:30:00Z,30.3085,-88.1395,1.946,8.99,1111122 
DISL,ioos:station:DISL:CATA:1,2016-03-05T15:00:00Z,30.3085,-88.1395,1.97,8.98,1111122 
DISL,ioos:station:DISL:CATA:1,2016-03-05T15:30:00Z,30.3085,-88.1395,1.999,9.01,1111122 
DISL,ioos:station:DISL:CATA:1,2016-03-05T16:00:00Z,30.3085,-88.1395,2.032,8.9,1111122 
DISL,ioos:station:DISL:CATA:1,2016-03-05T16:30:00Z,30.3085,-88.1395,2.061,8.81,1111122 
DISL,ioos:station:DISL:CATA:1,2016-03-05T17:00:00Z,30.3085,-88.1395,2.082,8.72,1111122 
DISL,ioos:station:DISL:CATA:1,2016-03-05T17:30:00Z,30.3085,-88.1395,2.105,8.85,1111122 
DISL,ioos:station:DISL:CATA:1,2016-03-05T18:00:00Z,30.3085,-88.1395,2.13,8.93,1111122 
DISL,ioos:station:DISL:CATA:1,2016-03-05T18:30:00Z,30.3085,-88.1395,2.159,8.91,1111122 
DISL,ioos:station:DISL:CATA:1,2016-03-05T19:00:00Z,30.3085,-88.1395,2.173,9.26,1111122 
DISL,ioos:station:DISL:CATA:1,2016-03-05T19:30:00Z,30.3085,-88.1395,2.2,9.5,1111122 
DISL,ioos:station:DISL:CATA:1,2016-03-05T20:00:00Z,30.3085,-88.1395,2.228,9.47,1111122 
DISL,ioos:station:DISL:CATA:1,2016-03-05T20:30:00Z,30.3085,-88.1395,2.251,9.45,1111122 
DISL,ioos:station:DISL:CATA:1,2016-03-05T21:00:00Z,30.3085,-88.1395,2.27,9.5,1111122 
DISL,ioos:station:DISL:CATA:1,2016-03-05T21:30:00Z,30.3085,-88.1395,2.295,9.6,1111122 
DISL,ioos:station:DISL:CATA:1,2016-03-05T22:00:00Z,30.3085,-88.1395,2.316,9.65,1111122 
DISL,ioos:station:DISL:CATA:1,2016-03-05T22:30:00Z,30.3085,-88.1395,2.326,9.75,1111122 
DISL,ioos:station:DISL:CATA:1,2016-03-05T23:00:00Z,30.3085,-88.1395,2.339,9.81,1111122 
DISL,ioos:station:DISL:CATA:1,2016-03-05T23:30:00Z,30.3085,-88.1395,2.361,9.67,1111122 
DISL,ioos:station:DISL:CATA:1,2016-03-06T00:00:00Z,30.3085,-88.1395,2.372,9.72,1111122 
DISL,ioos:station:DISL:CATA:1,2016-03-06T00:30:00Z,30.3085,-88.1395,2.366,9.88,1111122 
DISL,ioos:station:DISL:CATA:1,2016-03-06T01:00:00Z,30.3085,-88.1395,2.377,9.85,1111122 
DISL,ioos:station:DISL:CATA:1,2016-03-06T01:30:00Z,30.3085,-88.1395,2.375,9.79,1111122 
DISL,ioos:station:DISL:CATA:1,2016-03-06T02:00:00Z,30.3085,-88.1395,2.37,9.72,1111122 
DISL,ioos:station:DISL:CATA:1,2016-03-06T02:30:00Z,30.3085,-88.1395,2.358,9.33,1111122 
DISL,ioos:station:DISL:CATA:1,2016-03-06T03:00:00Z,30.3085,-88.1395,2.345,9.23,1111122 
DISL,ioos:station:DISL:CATA:1,2016-03-06T03:30:00Z,30.3085,-88.1395,2.326,9.39,1111122 
DISL,ioos:station:DISL:CATA:1,2016-03-06T04:00:00Z,30.3085,-88.1395,2.296,9.29,1111122 
DISL,ioos:station:DISL:CATA:1,2016-03-06T04:30:00Z,30.3085,-88.1395,2.254,9.4,1111122 
DISL,ioos:station:DISL:CATA:1,2016-03-06T05:00:00Z,30.3085,-88.1395,2.215,9.59,1111122 
DISL,ioos:station:DISL:CATA:1,2016-03-06T05:30:00Z,30.3085,-88.1395,2.18,9.55,1111122 
DISL,ioos:station:DISL:CATA:1,2016-03-06T06:00:00Z,30.3085,-88.1395,2.14,9.5,1111122 
DISL,ioos:station:DISL:CATA:1,2016-03-06T06:30:00Z,30.3085,-88.1395,2.102,9.6,1111122 
DISL,ioos:station:DISL:CATA:1,2016-03-06T07:00:00Z,30.3085,-88.1395,2.057,9.46,1111122 
DISL,ioos:station:DISL:CATA:1,2016-03-06T07:30:00Z,30.3085,-88.1395,2.022,9.31,1111122 
DISL,ioos:station:DISL:CATA:1,2016-03-06T08:00:00Z,30.3085,-88.1395,1.982,9.17,1111122 
DISL,ioos:station:DISL:CATA:1,2016-03-06T08:30:00Z,30.3085,-88.1395,1.943,9.14,1111122 
DISL,ioos:station:DISL:CATA:1,2016-03-06T09:00:00Z,30.3085,-88.1395,1.917,9.11,1111122 
DISL,ioos:station:DISL:CATA:1,2016-03-06T09:30:00Z,30.3085,-88.1395,1.888,9.11,1111122 
DISL,ioos:station:DISL:CATA:1,2016-03-06T10:00:00Z,30.3085,-88.1395,1.872,9.12,1111122 
DISL,ioos:station:DISL:CATA:1,2016-03-06T10:30:00Z,30.3085,-88.1395,1.84,9.12,1111122 
DISL,ioos:station:DISL:CATA:1,2016-03-06T11:00:00Z,30.3085,-88.1395,1.836,9.1,1111122 
DISL,ioos:station:DISL:CATA:1,2016-03-06T11:30:00Z,30.3085,-88.1395,1.828,9.11,1111122 
DISL,ioos:station:DISL:CATA:1,2016-03-06T12:00:00Z,30.3085,-88.1395,1.815,9.09,1111122 
DISL,ioos:station:DISL:CATA:1,2016-03-06T12:30:00Z,30.3085,-88.1395,1.799,9.08,1111122 
DISL,ioos:station:DISL:CATA:1,2016-03-06T13:00:00Z,30.3085,-88.1395,1.797,9.07,1111122 
DISL,ioos:station:DISL:CATA:1,2016-03-06T13:30:00Z,30.3085,-88.1395,1.803,9.12,1111122 
DISL,ioos:station:DISL:CATA:1,2016-03-06T14:00:00Z,30.3085,-88.1395,1.811,9.21,1111122 
DISL,ioos:station:DISL:CATA:1,2016-03-06T14:30:00Z,30.3085,-88.1395,1.836,9.37,1111122 
DISL,ioos:station:DISL:CATA:1,2016-03-06T15:00:00Z,30.3085,-88.1395,1.864,9.55,1111122 